Elizabethton, TN

8:50 AM EST on February 09, 2016 (GMT -0500)
Elizabethton

Weather History for K0A9 - March, 2013

Change the Weather History Date:

Thursday, March 21, 2013

  Actual Average (KTRI) Record (KTRI)
Temperature  
Mean Temperature 27 °F 48 °F  
Max Temperature 33 °F 61 °F 80 °F (1968)
Min Temperature 21 °F 36 °F 12 °F (1965)
Degree Days  
Heating Degree Days 38 17  
Month to date heating degree days 413  
Since 1 July heating degree days 3795  
Cooling Degree Days 0 0  
Month to date cooling degree days 0  
Year to date cooling degree days 0  
Moisture  
Dew Point 9 °F    
Average Humidity 46    
Maximum Humidity 63    
Minimum Humidity 32    
Precipitation  
Precipitation 0.00 in 0.11 in 1.24 in (1943)
Month to date precipitation 2.30  
Year to date precipitation 9.12  
Snow  
Snow 0.00 in 0.10 in - ()
Month to date snowfall 1.1  
Since 1 July snowfall 11.9  
Snow Depth -    
Sea Level Pressure  
Sea Level Pressure 29.89 in    
Wind  
Wind Speed 9 mph (WNW)    
Max Wind Speed 20 mph    
Max Gust Speed 22 mph    
Visibility 10 miles    
Events      
T = Trace of Precipitation, MM = Missing Value Source: NWS Daily Summary

Daily Weather History Graph

Daily Weather History Graph

Search for Another Location

Airport or City:

Trip Planner

Search our weather history database for the weather conditions in past years. The results will help you decide how hot, cold, wet, or windy it might be!

Date:

Astronomy

Mar. 21, 2013 Rise Set
Actual Time 7:30 AM EDT 7:41 PM EDT
Civil Twilight 7:04 AM EDT 8:07 PM EDT
Nautical Twilight 6:34 AM EDT 8:37 PM EDT
Astronomical Twilight 6:04 AM EDT 9:07 PM EDT
Moon 2:18 PM EDT (3/21) 3:43 AM EDT (3/21)
Length of Visible Light 13h 02m
Length of Day
12h 11m
Waxing Gibbous, 68% of the Moon is Illuminated
Mar 21
Waxing Gibbous
Mar 27
Full
Apr 3
Last Quarter
Apr 10
New
Apr 18
First Quarter

Hourly Weather History & Observations

Time (EDT) Temp. Windchill Dew Point Humidity Pressure Visibility Wind Dir Wind Speed Gust Speed Precip Events Conditions
12:15 AM 30.2 °F 20.8 °F 17.6 °F 60% 29.90 in 10.0 mi West 11.5 mph - N/A   Partly Cloudy
12:35 AM 30.2 °F 23.4 °F 15.8 °F 55% 29.90 in 10.0 mi WSW 6.9 mph - N/A   Clear
12:55 AM 30.2 °F 24.3 °F 12.2 °F 47% 29.90 in 10.0 mi West 5.8 mph - N/A   Clear
1:15 AM 30.2 °F 22.6 °F 10.4 °F 44% 29.89 in 10.0 mi WSW 8.1 mph - N/A   Clear
1:35 AM 28.4 °F 23.3 °F 10.4 °F 47% 29.88 in 10.0 mi WSW 4.6 mph - N/A   Clear
2:15 AM 28.4 °F 19.7 °F 10.4 °F 47% 29.87 in 10.0 mi WSW 9.2 mph - N/A   Clear
2:35 AM 28.4 °F 19.7 °F 10.4 °F 47% 29.86 in 10.0 mi WSW 9.2 mph - N/A   Clear
2:55 AM 26.6 °F 20.0 °F 10.4 °F 51% 29.87 in 10.0 mi West 5.8 mph - N/A   Clear
3:15 AM 26.6 °F 17.5 °F 10.4 °F 51% 29.86 in 10.0 mi West 9.2 mph - N/A   Clear
3:35 AM 26.6 °F 19.1 °F 10.4 °F 51% 29.86 in 10.0 mi West 6.9 mph - N/A   Clear
3:55 AM 26.6 °F 17.5 °F 8.6 °F 47% 29.86 in 10.0 mi West 9.2 mph - N/A   Clear
4:15 AM 24.8 °F 16.9 °F 10.4 °F 54% 29.86 in 10.0 mi Variable 6.9 mph - N/A   Clear
4:35 AM 24.8 °F 16.1 °F 8.6 °F 50% 29.85 in 10.0 mi West 8.1 mph - N/A   Clear
4:55 AM 24.8 °F 16.1 °F 8.6 °F 50% 29.85 in 10.0 mi West 8.1 mph - N/A   Clear
5:15 AM 24.8 °F 16.9 °F 8.6 °F 50% 29.85 in 10.0 mi WSW 6.9 mph - N/A   Mostly Cloudy
5:35 AM 24.8 °F 16.1 °F 8.6 °F 50% 29.85 in 10.0 mi WSW 8.1 mph - N/A   Mostly Cloudy
5:55 AM 23.0 °F 14.7 °F 10.4 °F 59% 29.85 in 10.0 mi West 6.9 mph - N/A   Partly Cloudy
6:15 AM 23.0 °F 15.8 °F 8.6 °F 54% 29.86 in 10.0 mi Variable 5.8 mph - N/A   Clear
6:35 AM 23.0 °F 13.9 °F 8.6 °F 54% 29.86 in 10.0 mi West 8.1 mph - N/A   Mostly Cloudy
6:55 AM 23.0 °F 13.1 °F 8.6 °F 54% 29.86 in 10.0 mi West 9.2 mph - N/A   Scattered Clouds
7:15 AM 21.2 °F 10.1 °F 8.6 °F 58% 29.87 in 10.0 mi West 10.4 mph - N/A   Mostly Cloudy
7:35 AM 23.0 °F 13.9 °F 10.4 °F 59% 29.87 in 10.0 mi West 8.1 mph - N/A   Overcast
7:55 AM 23.0 °F 17.0 °F 10.4 °F 59% 29.87 in 10.0 mi Variable 4.6 mph - N/A   Overcast
8:15 AM 21.2 °F 12.6 °F 10.4 °F 63% 29.88 in 10.0 mi West 6.9 mph - N/A   Overcast
8:35 AM 23.0 °F 13.9 °F 10.4 °F 59% 29.88 in 10.0 mi West 8.1 mph - N/A   Overcast
8:55 AM 21.2 °F 10.1 °F 8.6 °F 58% 29.88 in 10.0 mi WNW 10.4 mph - N/A   Mostly Cloudy
9:15 AM 21.2 °F 9.5 °F 6.8 °F 54% 29.89 in 10.0 mi WNW 11.5 mph - N/A   Mostly Cloudy
9:35 AM 23.0 °F 13.9 °F 6.8 °F 50% 29.89 in 10.0 mi NW 8.1 mph - N/A   Partly Cloudy
9:55 AM 24.8 °F 13.4 °F 8.6 °F 50% 29.90 in 10.0 mi West 12.7 mph - N/A   Clear
10:15 AM 24.8 °F 14.0 °F 6.8 °F 46% 29.90 in 10.0 mi West 11.5 mph - N/A   Scattered Clouds
10:35 AM 24.8 °F 13.4 °F 6.8 °F 46% 29.90 in 10.0 mi West 12.7 mph - N/A   Scattered Clouds
10:55 AM 26.6 °F 15.2 °F 6.8 °F 43% 29.89 in 10.0 mi NW 13.8 mph - N/A   Partly Cloudy
11:15 AM 26.6 °F 16.2 °F 6.8 °F 43% 29.89 in 10.0 mi West 11.5 mph - N/A   Partly Cloudy
11:35 AM 26.6 °F 16.2 °F 6.8 °F 43% 29.90 in 10.0 mi WSW 11.5 mph 19.6 mph N/A   Scattered Clouds
11:55 AM 26.6 °F 16.2 °F 6.8 °F 43% 29.91 in 10.0 mi WNW 11.5 mph - N/A   Scattered Clouds
12:35 PM 28.4 °F 18.5 °F 8.6 °F 43% 29.90 in 10.0 mi NNW 11.5 mph - N/A   Mostly Cloudy
12:55 PM 28.4 °F 18.5 °F 6.8 °F 40% 29.91 in 10.0 mi West 11.5 mph - N/A   Mostly Cloudy
1:15 PM 28.4 °F 21.2 °F 8.6 °F 43% 29.90 in 10.0 mi Variable 6.9 mph - N/A   Mostly Cloudy
1:35 PM 30.2 °F 21.9 °F 8.6 °F 40% 29.90 in 10.0 mi West 9.2 mph - N/A   Overcast
1:55 PM 30.2 °F 20.8 °F 8.6 °F 40% 29.90 in 10.0 mi WNW 11.5 mph - N/A   Overcast
2:15 PM 28.4 °F 19.7 °F 8.6 °F 43% 29.89 in 10.0 mi West 9.2 mph - N/A   Mostly Cloudy
2:35 PM 30.2 °F 19.3 °F 8.6 °F 40% 29.88 in 10.0 mi WNW 15.0 mph - N/A   Mostly Cloudy
2:55 PM 30.2 °F 21.9 °F 8.6 °F 40% 29.88 in 10.0 mi West 9.2 mph 21.9 mph N/A   Mostly Cloudy
3:15 PM 30.2 °F 20.2 °F 8.6 °F 40% 29.88 in 10.0 mi West 12.7 mph - N/A   Mostly Cloudy
3:35 PM 32.0 °F 20.1 °F 8.6 °F 38% 29.88 in 10.0 mi West 19.6 mph - N/A   Mostly Cloudy
3:55 PM 30.2 °F 20.2 °F 8.6 °F 40% 29.89 in 10.0 mi WNW 12.7 mph - N/A   Mostly Cloudy
4:15 PM 30.2 °F 19.8 °F 8.6 °F 40% 29.88 in 10.0 mi NW 13.8 mph - N/A   Mostly Cloudy
4:35 PM 30.2 °F 20.8 °F 6.8 °F 37% 29.89 in 10.0 mi WNW 11.5 mph - N/A   Scattered Clouds
4:55 PM 32.0 °F 23.0 °F 8.6 °F 38% 29.88 in 10.0 mi WNW 11.5 mph - N/A   Mostly Cloudy
5:15 PM 32.0 °F 24.8 °F 6.8 °F 35% 29.89 in 10.0 mi WNW 8.1 mph - N/A   Mostly Cloudy
5:35 PM 33.8 °F 24.3 °F 8.6 °F 35% 29.89 in 10.0 mi NNW 13.8 mph - N/A   Mostly Cloudy
5:55 PM 33.8 °F 24.3 °F 6.8 °F 32% 29.89 in 10.0 mi West 13.8 mph - N/A   Scattered Clouds
6:15 PM 32.0 °F 24.8 °F 6.8 °F 35% 29.89 in 10.0 mi NW 8.1 mph - N/A   Partly Cloudy
6:35 PM 32.0 °F 23.0 °F 6.8 °F 35% 29.89 in 10.0 mi NW 11.5 mph - N/A   Clear
6:55 PM 30.2 °F 23.4 °F 6.8 °F 37% 29.89 in 10.0 mi NW 6.9 mph - N/A   Clear
7:15 PM 30.2 °F 22.6 °F 6.8 °F 37% 29.90 in 10.0 mi West 8.1 mph - N/A   Clear
7:35 PM 30.2 °F 22.6 °F 6.8 °F 37% 29.90 in 10.0 mi WNW 8.1 mph - N/A   Clear
7:55 PM 28.4 °F 21.2 °F 6.8 °F 40% 29.90 in 10.0 mi WNW 6.9 mph - N/A   Clear
8:15 PM 28.4 °F 23.3 °F 8.6 °F 43% 29.91 in 10.0 mi WNW 4.6 mph - N/A   Clear
8:35 PM 28.4 °F 24.6 °F 6.8 °F 40% 29.92 in 10.0 mi Variable 3.5 mph - N/A   Clear
8:55 PM 28.4 °F 23.3 °F 6.8 °F 40% 29.93 in 10.0 mi NW 4.6 mph - N/A   Clear
9:15 PM 28.4 °F 22.2 °F 8.6 °F 43% 29.93 in 10.0 mi NW 5.8 mph - N/A   Clear
9:35 PM 26.6 °F 20.0 °F 8.6 °F 47% 29.94 in 10.0 mi NNE 5.8 mph - N/A   Clear
9:55 PM 26.6 °F 21.2 °F 8.6 °F 47% 29.95 in 10.0 mi Variable 4.6 mph - N/A   Clear
10:15 PM 26.6 °F 21.2 °F 8.6 °F 47% 29.95 in 10.0 mi Variable 4.6 mph - N/A   Clear
10:35 PM 24.8 °F 20.5 °F 8.6 °F 50% 29.95 in 10.0 mi Variable 3.5 mph - N/A   Clear
10:55 PM 24.8 °F - 8.6 °F 50% 29.96 in 10.0 mi Calm Calm - N/A   Clear
11:15 PM 24.8 °F 19.1 °F 8.6 °F 50% 29.98 in 10.0 mi East 4.6 mph - N/A   Clear
11:35 PM 24.8 °F 20.5 °F 8.6 °F 50% 29.98 in 10.0 mi ESE 3.5 mph - N/A   Clear
11:55 PM 24.8 °F - 8.6 °F 50% 29.98 in 10.0 mi Calm Calm - N/A   Clear